| time (UTC) | temp C | wind direction | speed KPH | gust KPH | rain 1hr cm | rain 24hr cm | rain mn cm | humidity % | barometer mb |
| 20260502163030 | 13 | 315 | 0.0 | 3.2 | 0.00 | 0.00 | 0.00 | 81 | 1018.5 |
| 20260502151531 | 11 | 296 | 0.0 | 8.0 | 0.00 | 0.00 | 0.00 | 84 | 1018.2 |
| 20260502123037 | 11 | 225 | 0.0 | 3.2 | 0.00 | 0.00 | 0.00 | 80 | 1016.6 |
| 20260502121608 | 11 | 246 | 1.6 | 4.8 | 0.00 | 0.00 | 0.00 | 80 | 1016.7 |
| 20260502114532 | 12 | 271 | 1.6 | 6.4 | 0.00 | 0.00 | 0.00 | 79 | 1016.7 |
| 20260502111529 | 11 | 179 | 1.6 | 9.7 | 0.00 | 0.00 | 0.00 | 81 | 1016.5 |
| 20260502110038 | 11 | 185 | 0.0 | 4.8 | 0.00 | 0.00 | 0.00 | 81 | 1016.8 |
| 20260502104530 | 11 | 214 | 0.0 | 3.2 | 0.00 | 0.00 | 0.00 | 82 | 1017.1 |
| 20260502103105 | 11 | 228 | 1.6 | 4.8 | 0.00 | 0.00 | 0.00 | 81 | 1017.1 |
| 20260502101531 | 11 | 159 | 0.0 | 3.2 | 0.00 | 0.00 | 0.00 | 82 | 1016.9 |
| 20260502091532 | 12 | 251 | 0.0 | 4.8 | 0.00 | 0.00 | 0.00 | 74 | 1017.0 |
| 20260502071530 | 12 | 228 | 0.0 | 6.4 | 0.00 | 0.00 | 0.00 | 74 | 1017.4 |
| 20260502064531 | 12 | 229 | 1.6 | 6.4 | 0.00 | 0.00 | 0.00 | 74 | 1017.4 |
| 20260502063033 | 12 | 247 | 0.0 | 3.2 | 0.00 | 0.00 | 0.00 | 75 | 1017.3 |
| 20260502060035 | 13 | 267 | 0.0 | 3.2 | 0.00 | 0.00 | 0.00 | 72 | 1017.1 |
| 20260502054529 | 13 | 218 | 0.0 | 3.2 | 0.00 | 0.00 | 0.00 | 74 | 1017.1 |
| 20260502053030 | 13 | 208 | 0.0 | 0.0 | 0.00 | 0.00 | 0.00 | 72 | 1016.8 |
| 20260502051531 | 14 | 225 | 0.0 | 0.0 | 0.00 | 0.00 | 0.00 | 69 | 1016.8 |
| 20260502044533 | 15 | 241 | 0.0 | 6.4 | 0.00 | 0.00 | 0.00 | 63 | 1016.7 |
| 20260502043031 | 16 | 18 | 0.0 | 3.2 | 0.00 | 0.00 | 0.00 | 62 | 1016.6 |
| 20260502041530 | 17 | 35 | 0.0 | 3.2 | 0.00 | 0.00 | 0.00 | 59 | 1016.5 |
| 20260502040213 | -17 | 0 | 0.0 | 0.0 | 0.00 | 0.00 | 0.00 | 100 | |
| 20260502033144 | 18 | 360 | 0.0 | 6.4 | 0.00 | 0.00 | 0.00 | 53 | 1016.0 |
| 20260502031532 | 18 | 112 | 0.0 | 3.2 | 0.00 | 0.00 | 0.00 | 51 | 1015.7 |
| 20260502024533 | 20 | 135 | 0.0 | 0.0 | 0.00 | 0.00 | 0.00 | 50 | 1015.3 |
| 20260502023030 | 21 | 135 | 0.0 | 0.0 | 0.00 | 0.00 | 0.00 | 52 | 1015.2 |
| 20260502021531 | 21 | 135 | 0.0 | 0.0 | 0.00 | 0.00 | 0.00 | 49 | 1015.1 |
| 20260502020031 | 22 | 135 | 0.0 | 0.0 | 0.00 | 0.00 | 0.00 | 47 | 1015.0 |
| 20260502013041 | 23 | 135 | 0.0 | 3.2 | 0.00 | 0.00 | 0.00 | 36 | 1014.9 |
| 20260502011602 | 23 | 142 | 0.0 | 4.8 | 0.00 | 0.00 | 0.00 | 34 | 1015.0 |
| 20260502010031 | 25 | 140 | 1.6 | 8.0 | 0.00 | 0.00 | 0.00 | 32 | 1015.0 |
| 20260502004532 | 25 | 128 | 1.6 | 6.4 | 0.00 | 0.00 | 0.00 | 29 | 1015.1 |
| 20260502003030 | 26 | 137 | 1.6 | 9.7 | 0.00 | 0.00 | 0.00 | 29 | 1015.2 |
| 20260502000031 | 27 | 117 | 3.2 | 9.7 | 0.00 | 0.00 | 0.00 | 29 | 1015.3 |
| 20260501234530 | 26 | 123 | 3.2 | 9.7 | 0.00 | 0.00 | 0.00 | 30 | 1015.5 |
| 20260501233031 | 26 | 131 | 3.2 | 14.5 | 0.00 | 0.00 | 0.00 | 31 | 1015.6 |
| 20260501230030 | 26 | 129 | 1.6 | 14.5 | 0.00 | 0.00 | 0.00 | 30 | 1016.1 |
| 20260501224606 | 27 | 124 | 3.2 | 9.7 | 0.00 | 0.00 | 0.00 | 30 | 1016.3 |
| 20260501223031 | 27 | 126 | 3.2 | 12.9 | 0.00 | 0.00 | 0.00 | 30 | 1016.5 |
| 20260501221606 | 27 | 120 | 3.2 | 11.3 | 0.00 | 0.00 | 0.00 | 30 | 1016.7 |
| 20260501214531 | 26 | 114 | 3.2 | 12.9 | 0.00 | 0.00 | 0.00 | 32 | 1017.2 |
| 20260501213030 | 26 | 116 | 3.2 | 12.9 | 0.00 | 0.00 | 0.00 | 32 | 1017.4 |
| 20260501210030 | 26 | 117 | 3.2 | 8.0 | 0.00 | 0.00 | 0.00 | 32 | 1017.6 |
| 20260501204531 | 26 | 131 | 3.2 | 9.7 | 0.00 | 0.00 | 0.00 | 32 | 1017.8 |
| 20260501201529 | 25 | 132 | 1.6 | 8.0 | 0.00 | 0.00 | 0.00 | 33 | 1018.2 |
| 20260501200028 | 25 | 156 | 3.2 | 9.7 | 0.00 | 0.00 | 0.00 | 34 | 1018.4 |
| 20260501194530 | 24 | 141 | 1.6 | 8.0 | 0.00 | 0.00 | 0.00 | 36 | 1018.7 |
| 20260501193033 | 23 | 145 | 1.6 | 11.3 | 0.00 | 0.00 | 0.00 | 37 | 1019.0 |
| 20260501191530 | 23 | 138 | 1.6 | 6.4 | 0.00 | 0.00 | 0.00 | 39 | 1019.2 |
| 20260501190104 | 22 | 156 | 1.6 | 6.4 | 0.00 | 0.00 | 0.00 | 38 | 1019.4 |
| 20260501183026 | 22 | 131 | 1.6 | 8.0 | 0.00 | 0.00 | 0.00 | 39 | 1019.6 |
| 20260501181532 | 22 | 132 | 1.6 | 8.0 | 0.00 | 0.00 | 0.00 | 39 | 1019.7 |
| 20260501180041 | 21 | 147 | 1.6 | 6.4 | 0.00 | 0.00 | 0.00 | 40 | 1019.9 |
| 20260501174532 | 21 | 147 | 1.6 | 6.4 | 0.00 | 0.00 | 0.00 | 40 | 1020.0 |
| 20260501173030 | 20 | 152 | 0.0 | 6.4 | 0.00 | 0.00 | 0.00 | 43 | 1020.2 |
| 20260501171533 | 19 | 90 | 0.0 | 3.2 | 0.00 | 0.00 | 0.00 | 45 | 1020.3 |